WE3C Weather Reports


time (UTC)temp
F
wind
direction
speed
knots
gust
knots
rain 1hr
in
rain 24hr
in
rain mn
in
humidity
%
barometer
mb
20260504081521 47 222 0.0 0.0 0.00 0.00 0.00 56 1019.7
20260504044603 48 221 0.0 0.0 0.00 0.00 0.00 54 1019.7
20260504043056 48 360 0.0 0.0 0.00 0.00 0.00 54 1019.7
20260504041554 48 228 0.0 0.0 0.00 0.00 0.00 53 1019.6
20260504040049 48 219 0.0 0.0 0.00 0.00 0.00 52 1019.5
20260504034605 47 211 0.0 0.0 0.00 0.00 0.00 54 1019.1
20260504033046 47 360 0.0 0.0 0.00 0.00 0.00 57 1019.1
20260504031546 47 217 0.0 0.0 0.00 0.00 0.00 55 1019.2
20260504030045 47 360 0.0 0.0 0.00 0.00 0.00 57 1019.0
20260504024645 47 360 0.0 0.0 0.00 0.00 0.00 56 1019.2
20260504023009 48 225 0.0 0.0 0.00 0.00 0.00 53 1019.2
20260504021507 48 360 0.0 0.0 0.00 0.00 0.00 55 1019.2
20260504020007 48 239 0.0 0.0 0.00 0.00 0.00 57 1019.2
20260504014504 48 240 0.0 0.0 0.00 0.00 0.00 57 1019.0
20260504013003 48 250 0.0 0.0 0.00 0.00 0.00 56 1019.1
20260504011503 49 249 0.0 0.0 0.00 0.00 0.00 55 1019.0
20260504004558 49 252 0.0 0.0 0.00 0.00 0.00 55 1018.7
20260504003100 50 257 0.0 0.0 0.00 0.00 0.00 54 1018.5
20260504001609 52 257 0.0 0.0 0.00 0.00 0.00 51 1018.1
20260504000057 53 248 0.0 0.0 0.00 0.00 0.00 46 1018.2
20260503234556 54 360 0.0 0.0 0.00 0.00 0.00 41 1017.9
20260503233055 55 360 0.0 0.0 0.00 0.00 0.00 41 1017.9
20260503231555 55 259 0.0 0.0 0.00 0.00 0.00 39 1017.9
20260503230059 56 248 0.0 0.0 0.00 0.00 0.00 39 1017.9
20260503224555 56 248 0.0 0.0 0.00 0.00 0.00 37 1017.8
20260503223052 57 254 0.0 0.0 0.00 0.00 0.00 39 1017.7
20260503221552 57 305 0.0 0.0 0.00 0.00 0.00 41 1017.7
20260503220051 57 310 0.0 0.0 0.00 0.00 0.00 37 1017.8
20260503180033 54 289 0.0 0.0 0.00 0.00 0.00 41 1018.9
20260503174530 54 318 0.0 0.0 0.00 0.00 0.00 42 1019.0
20260503173030 52 329 0.0 0.0 0.00 0.00 0.00 40 1019.1
20260503171529 52 331 0.0 0.0 0.00 0.00 0.00 43 1019.2